Location: Martz Observatory
(42.0083°N, 79.0667°W)
Time: 01:06:56
(UTC-04:00)

Meteor 2-21 - Pass Details

Date: 26 May 2018
Orbit: 933 x 967 km, 82.6° (Epoch: 18 June)

Event Time Altitude Azimuth Distance (km) Brightness Sun altitude
Rises 04:03:58 0° 349° (N) 3,626 8.1 -15.6°
Reaches altitude 10° 04:06:29 10° 348° (NNW) 2,672 7.3 -15.3°
Maximum altitude 04:12:33 71° 265° (W) 991 4.4 -14.5°
Drops below altitude 10° 04:18:32 10° 183° (S) 2,637 6.3 -13.7°
Enters shadow 04:18:44 - 183° (S) 2,716 6.4 -13.7°
